This demonstration page uses our WeatherBlox Daily Observations layout. Learn more.

Hourly Observations for December 30, 2019

Temp ( °F °C ) Dew Point ( °F °C ) Humidity (%) Winds ( mph kmh ) Pressure ( in mb ) Visibility ( mi km ) Precip ( " mm )
12:15 am 00:15 Clear 28 -2.1 23 -5.1 80 80 NW 25 41 29.85 1011 10 16.0934 0 0
12:35 am 00:35 Clear 28 -2.1 22 -5.3 79 79 WNW 25 41 29.85 1011 10 16.0934 0 0
12:55 am 00:55 Clear 28 -2.5 22 -5.4 81 81 NW 24 39 29.86 1011 7 11.26538 0 0
1:15 am 01:15 Partly Cloudy 27 -2.7 22 -5.5 81 81 NW 26 43 29.87 1012 10 16.0934 0 0
1:35 am 01:35 Partly Cloudy 27 -2.7 22 -5.5 81 81 NW 24 39 29.87 1012 7 11.26538 0 0
1:55 am 01:55 Partly Cloudy 27 -2.7 22 -5.6 81 81 NW 24 39 29.88 1012 10 16.0934 0 0
2:15 am 02:15 Partly Cloudy 27 -2.8 22 -5.6 81 81 NW 26 43 29.88 1012 10 16.0934 0 0
2:35 am 02:35 Partly Cloudy 27 -3 22 -5.7 82 82 NW 28 44 29.89 1012 7 11.26538 0 0
2:55 am 02:55 Hazy 26 -3.2 22 -5.8 82 82 NW 23 37 29.9 1013 5 8.0467 0 0
3:15 am 03:15 Clear 26 -3.2 21 -6 81 81 NW 21 33 29.91 1013 10 16.0934 0 0
3:35 am 03:35 Clear 26 -3.1 21 -6 81 81 NW 24 39 29.91 1013 7 11.26538 0 0
3:55 am 03:55 Hazy 26 -3.1 22 -5.8 82 82 NW 24 39 29.91 1013 4 6.43736 0 0
4:15 am 04:15 Clear 27 -3 21 -5.9 81 81 NW 24 39 29.91 1013 7 11.26538 0 0
4:35 am 04:35 Clear 27 -3 21 -6 80 80 NW 23 37 29.91 1013 7 11.26538 0 0
4:55 am 04:55 Clear 27 -3 21 -6 80 80 NW 22 35 29.92 1013 7 11.26538 0 0
5:15 am 05:15 Clear 27 -2.8 21 -6.1 78 78 NW 21 33 29.92 1013 10 16.0934 0 0
5:35 am 05:35 Clear 26 -3.1 21 -6 81 81 NW 23 37 29.93 1014 7 11.26538 0 0
5:55 am 05:55 Clear 26 -3.1 21 -6.2 79 79 NW 22 35 29.94 1014 10 16.0934 0 0
6:15 am 06:15 Clear 26 -3.2 21 -6.3 79 79 NW 22 35 29.96 1014 7 11.26538 0 0
6:35 am 06:35 Clear 26 -3.2 20 -6.5 78 78 NW 22 35 29.96 1014 7 11.26538 0 0
6:55 am 06:55 Clear 26 -3.2 20 -6.5 78 78 NW 22 35 29.97 1015 10 16.0934 0 0
7:15 am 07:15 Clear 26 -3.3 20 -6.5 79 79 NW 21 33 29.98 1015 10 16.0934 0 0
7:35 am 07:35 Clear 26 -3.5 20 -6.7 79 79 NW 18 30 29.99 1016 10 16.0934 0 0
7:55 am 07:55 Clear 26 -3.4 20 -6.7 78 78 NW 18 30 29.99 1015 10 16.0934 0 0
8:15 am 08:15 Sunny 26 -3.5 20 -6.8 78 78 NW 20 31 30 1016 10 16.0934 0 0
8:35 am 08:35 Sunny 27 -3 20 -6.6 76 76 NW 23 37 30 1016 10 16.0934 0 0
8:55 am 08:55 Sunny 27 -2.7 20 -6.5 75 75 NW 23 37 30.02 1017 7 11.26538 0 0
9:15 am 09:15 Sunny 28 -2.5 20 -6.5 74 74 NW 21 33 30.03 1017 10 16.0934 0 0
9:35 am 09:35 Sunny 28 -2.1 20 -6.4 73 73 NW 24 39 30.03 1017 10 16.0934 0 0
9:55 am 09:55 Sunny 28 -2.1 20 -6.5 72 72 NW 24 39 30.03 1017 10 16.0934 0 0
10:15 am 10:15 Sunny 28 -2 21 -6.2 73 73 NW 24 39 30.04 1017 10 16.0934 0 0
10:35 am 10:35 Sunny 28 -2 21 -6 74 74 NW 22 35 30.05 1018 10 16.0934 0 0
10:55 am 10:55 Sunny 29 -1.6 22 -5.8 73 73 NW 26 43 30.05 1018 10 16.0934 0 0
11:15 am 11:15 Sunny 29 -1.4 22 -5.7 73 73 NW 22 35 30.05 1018 10 16.0934 0 0
11:35 am 11:35 Sunny 30 -1.1 22 -5.5 72 72 NW 23 37 30.06 1018 10 16.0934 0 0
11:55 am 11:55 Sunny 30 -1.2 22 -5.6 72 72 NW 25 41 30.05 1017 10 16.0934 0 0
12:15 pm 12:15 Sunny 30 -1.2 22 -5.5 73 73 NNW 25 41 30.04 1017 10 16.0934 0 0
12:35 pm 12:35 Sunny 30 -1 22 -5.5 72 72 NW 26 43 30.03 1017 10 16.0934 0 0
12:55 pm 12:55 Sunny 31 -0.8 22 -5.3 72 72 NW 23 37 30.04 1017 10 16.0934 0 0
1:15 pm 13:15 Sunny 31 -0.6 23 -5.1 72 72 NW 23 37 30.04 1017 10 16.0934 0 0
1:35 pm 13:35 Sunny 31 -0.5 22 -5.3 70 70 NW 25 41 30.04 1017 10 16.0934 0 0
1:55 pm 13:55 Sunny 32 -0.1 22 -5.5 67 67 NW 25 41 30.04 1017 10 16.0934 0 0
2:15 pm 14:15 Sunny 32 -0.2 22 -5.5 68 68 NW 23 37 30.04 1017 10 16.0934 0 0
2:35 pm 14:35 Sunny 32 -0.2 22 -5.5 68 68 NW 25 41 30.05 1017 10 16.0934 0 0
2:55 pm 14:55 Sunny 31 -0.5 23 -5.2 71 71 WNW 20 31 30.06 1018 10 16.0934 0 0
3:15 pm 15:15 Sunny 31 -0.6 22 -5.7 69 69 WNW 26 43 30.07 1018 10 16.0934 0 0
3:35 pm 15:35 Sunny 31 -0.5 21 -6 67 67 NW 25 41 30.07 1018 10 16.0934 0 0
3:55 pm 15:55 Sunny 31 -0.7 22 -5.7 69 69 NW 23 37 30.08 1019 10 16.0934 0 0
4:15 pm 16:15 Sunny 31 -0.5 20 -6.4 65 65 NW 22 35 30.07 1018 10 16.0934 0 0
4:35 pm 16:35 Sunny 31 -0.7 20 -6.6 65 65 NW 20 31 30.08 1019 10 16.0934 0 0
4:55 pm 16:55 Sunny 30 -1.2 20 -6.9 66 66 NW 21 33 30.09 1019 10 16.0934 0 0
5:15 pm 17:15 Sunny 29 -1.6 19 -7.1 66 66 NW 14 22 30.1 1019 10 16.0934 0 0
5:35 pm 17:35 Clear 29 -1.8 19 -7.5 65 65 WNW 16 26 30.12 1020 10 16.0934 0 0
5:55 pm 17:55 Clear 28 -2 18 -7.6 66 66 WNW 16 26 30.12 1020 10 16.0934 0 0
6:15 pm 18:15 Clear 28 -2.2 18 -7.8 66 66 WNW 14 22 30.13 1020 10 16.0934 0 0
6:35 pm 18:35 Clear 26 -3.1 18 -8 69 69 W 14 22 30.14 1021 10 16.0934 0 0
6:55 pm 18:55 Clear 26 -3.3 17 -8.4 68 68 W 13 20 30.15 1021 10 16.0934 0 0
7:15 pm 19:15 Clear 25 -3.9 17 -8.6 70 70 W 10 17 30.15 1021 10 16.0934 0 0
7:35 pm 19:35 Clear 26 -3.1 16 -8.7 66 66 W 15 24 30.14 1021 10 16.0934 0 0
7:55 pm 19:55 Clear 28 -2.4 16 -8.8 62 62 W 16 26 30.14 1021 10 16.0934 0 0
8:15 pm 20:15 Clear 27 -2.8 16 -8.7 64 64 W 16 26 30.14 1021 10 16.0934 0 0
8:35 pm 20:35 Clear 27 -3 17 -8.6 66 66 W 16 26 30.14 1021 10 16.0934 0 0
8:55 pm 20:55 Clear 26 -3.1 17 -8.5 67 67 W 16 26 30.14 1021 10 16.0934 0 0
9:15 pm 21:15 Clear 26 -3.5 17 -8.3 70 70 W 15 24 30.15 1021 10 16.0934 0 0
9:35 pm 21:35 Clear 26 -3.6 17 -8.2 71 71 W 13 20 30.15 1021 10 16.0934 0 0
9:55 pm 21:55 Clear 26 -3.1 18 -8 69 69 WNW 13 20 30.14 1021 10 16.0934 0 0
10:15 pm 22:15 Clear 26 -3.1 18 -8 69 69 WNW 12 19 30.14 1021 10 16.0934 0 0
10:35 pm 22:35 Clear 26 -3.5 18 -8 71 71 WNW 13 20 30.15 1021 10 16.0934 0 0
10:55 pm 22:55 Clear 26 -3.6 18 -8 72 72 W 12 19 30.15 1021 10 16.0934 0 0
11:15 pm 23:15 Clear 25 -3.8 18 -8 73 73 W 13 20 30.15 1021 10 16.0934 0 0
11:35 pm 23:35 Clear 26 -3.5 18 -7.8 72 72 W 14 22 30.15 1021 10 16.0934 0 0
11:55 pm 23:55 Clear 25 -4 18 -8 74 74 W 13 20 30.15 1021 10 16.0934 0 0

Powered by AerisWeather